Pontiac, MI

5:05 AM EDT on June 28, 2017 (GMT -0400)
Oakland County International

Weather History for KPTK - April, 2013

Change the Weather History Date:

Thursday, April 11, 2013

  Actual Average Record
Temperature  
Mean Temperature 36 °F -  
Max Temperature 37 °F 54 °F 73 °F (2008)
Min Temperature 35 °F 35 °F 28 °F (2009)
Degree Days  
Heating Degree Days 29    
Moisture  
Dew Point 35 °F    
Average Humidity 95    
Maximum Humidity 100    
Minimum Humidity 92    
Precipitation  
Precipitation 0.74 in - - ()
Sea Level Pressure  
Sea Level Pressure 29.88 in    
Wind  
Wind Speed 12 mph (ENE)    
Max Wind Speed 20 mph    
Max Gust Speed 29 mph    
Visibility 7 miles    
Events Rain    
Averages and records for this station are not official NWS values.
T = Trace of Precipitation, MM = Missing Value Source: NWS Daily Summary

Daily Weather History Graph

Daily Weather History Graph

Search for Another Location

Airport or City:

Trip Planner

Search our weather history database for the weather conditions in past years. The results will help you decide how hot, cold, wet, or windy it might be!

Date:

Astronomy

Apr. 11, 2013 Rise Set
Actual Time 6:58 AM EDT 8:11 PM EDT
Civil Twilight 6:29 AM EDT 8:40 PM EDT
Nautical Twilight 5:54 AM EDT 9:15 PM EDT
Astronomical Twilight 5:18 AM EDT 9:52 PM EDT
Moon 7:27 AM EDT (4/11) 9:47 PM EDT (4/11)
Length of Visible Light 14h 11m
Length of Day
13h 12m
New Moon, 2% of the Moon is Illuminated
Apr 11
New Moon
Apr 18
First Quarter
Apr 25
Full
May 2
Last Quarter
May 9
New

Hourly Weather History & Observations

Time (EDT) Temp. Windchill Dew Point Humidity Pressure Visibility Wind Dir Wind Speed Gust Speed Precip Events Conditions
12:26 AM 35.6 °F 27.5 °F 35.6 °F 100% 29.96 in 3.0 mi NE 11.5 mph - 0.00 in   Overcast
12:53 AM 36.0 °F 28.0 °F 35.1 °F 97% 29.98 in 4.0 mi NE 11.5 mph - 0.00 in   Overcast
1:37 AM 37.4 °F 29.3 °F 37.4 °F 100% 29.95 in 10.0 mi ENE 12.7 mph - N/A   Overcast
1:53 AM 37.0 °F 30.4 °F 37.0 °F 100% 29.97 in 10.0 mi NE 9.2 mph - N/A   Overcast
2:53 AM 37.9 °F 32.1 °F 36.0 °F 93% 29.99 in 10.0 mi NE 8.1 mph - 0.00 in Rain Light Rain
3:53 AM 37.0 °F 29.8 °F 36.0 °F 96% 29.91 in 7.0 mi East 10.4 mph 19.6 mph 0.08 in Rain Light Rain
4:41 AM 37.4 °F 30.8 °F 35.6 °F 93% 29.91 in 4.0 mi NE 9.2 mph - 0.16 in Rain Heavy Rain
4:53 AM 37.0 °F 30.4 °F 36.0 °F 96% 29.94 in 6.0 mi NE 9.2 mph - 0.17 in Rain Light Rain
5:53 AM 36.0 °F 31.1 °F 36.0 °F 100% 29.95 in 7.0 mi East 5.8 mph - 0.21 in Rain Light Rain
6:53 AM 36.0 °F 30.3 °F 36.0 °F 100% 29.94 in 5.0 mi North 6.9 mph - 0.08 in Rain Rain
7:53 AM 36.0 °F 28.0 °F 34.0 °F 93% 29.94 in 10.0 mi ENE 11.5 mph - 0.03 in   Overcast
8:16 AM 35.6 °F 28.0 °F 33.8 °F 93% 29.94 in 2.5 mi ENE 10.4 mph - 0.01 in Rain Light Rain
8:53 AM 36.0 °F 27.1 °F 35.1 °F 97% 29.94 in 3.0 mi ENE 13.8 mph 21.9 mph 0.01 in Rain Light Rain
9:53 AM 36.0 °F 26.3 °F 34.0 °F 93% 29.94 in 10.0 mi ENE 16.1 mph 24.2 mph 0.00 in   Overcast
10:53 AM 36.0 °F 26.3 °F 34.0 °F 93% 29.93 in 8.0 mi East 16.1 mph 23.0 mph N/A   Overcast
11:18 AM 35.6 °F 26.6 °F 33.8 °F 93% 29.92 in 2.0 mi East 13.8 mph - 0.00 in Rain Light Rain
11:42 AM 35.6 °F 26.6 °F 33.8 °F 93% 29.91 in 1.5 mi ENE 13.8 mph 20.7 mph 0.02 in Rain Light Rain
11:53 AM 35.1 °F 24.5 °F 34.0 °F 96% 29.93 in 2.0 mi ENE 18.4 mph 24.2 mph 0.02 in Rain Light Rain
12:50 PM 35.6 °F 24.8 °F 35.6 °F 100% 29.89 in 10.0 mi East 19.6 mph 28.8 mph 0.02 in   Overcast
12:53 PM 35.6 °F 25.9 °F 35.6 °F 100% 29.89 in 10.0 mi East 16.1 mph 28.8 mph N/A   Overcast
1:53 PM 36.0 °F 25.3 °F 34.0 °F 93% 29.89 in 7.0 mi ENE 19.6 mph 24.2 mph 0.00 in   Overcast
2:53 PM 35.1 °F 24.8 °F 33.1 °F 92% 29.87 in 10.0 mi East 17.3 mph 25.3 mph N/A   Overcast
3:53 PM 35.1 °F 25.5 °F 33.1 °F 92% 29.85 in 7.0 mi East 15.0 mph 23.0 mph N/A   Overcast
4:53 PM 35.1 °F 24.1 °F 33.1 °F 92% 29.84 in 10.0 mi East 19.6 mph 27.6 mph N/A   Overcast
5:53 PM 35.1 °F 25.9 °F 33.1 °F 92% 29.81 in 7.0 mi East 13.8 mph 21.9 mph N/A   Overcast
6:53 PM 36.0 °F 26.3 °F 34.0 °F 93% 29.80 in 6.0 mi East 16.1 mph 23.0 mph N/A   Overcast
7:53 PM 36.0 °F 27.5 °F 34.0 °F 93% 29.78 in 8.0 mi East 12.7 mph 19.6 mph N/A   Overcast
8:53 PM 36.0 °F 27.5 °F 34.0 °F 93% 29.75 in 8.0 mi ENE 12.7 mph - 0.00 in Rain Light Rain
9:53 PM 36.0 °F 28.0 °F 34.0 °F 93% 29.73 in 7.0 mi ENE 11.5 mph 23.0 mph 0.02 in Rain Light Rain
10:53 PM 35.1 °F 26.9 °F 34.0 °F 96% 29.69 in 7.0 mi East 11.5 mph - 0.05 in Rain Light Rain
11:53 PM 35.1 °F 25.5 °F 35.1 °F 100% 29.65 in 6.0 mi East 15.0 mph 19.6 mph 0.07 in Rain Rain